[[{"header":{"parameterUnit":"m.s-1","parameterCategory":1,"la1":30.2992,"la2":30.254,"lo1":-89.0895,"lo2":-89.0443,"dy":0.0025,"dx":0.0025,"nx":19,"ny":19,"refTime":"2026-03-08T21:00:00:Z","depth":0,"parameterNumber":2,"parameterNumberName":"U-component_of_WINDS"},"data":[0,0,0,-1.4846,-1.4845,-1.4805,-1.4805,-1.4761,-1.4761,0,0,0,0,0,0,0,0,0,0,0,-1.4864,-1.4864,-1.4846,-1.4845,-1.4805,-1.4805,-1.4762,-1.4761,0,0,0,0,0,0,0,0,0,0,0,-1.4864,-1.4864,-1.4863,-1.4845,-1.4805,-1.4805,-1.4762,-1.4789,0,0,0,0,0,0,0,0,0,0,-1.4826,-1.4849,-1.4864,-1.4863,-1.4845,-1.4805,-1.4805,-1.479,-1.4787,-1.4783,0,-1.4783,0,-1.4772,-1.4759,-1.4759,0,0,0,-1.484,-1.4851,-1.4835,-1.4863,-1.4844,-1.4805,-1.4822,-1.4788,-1.4785,-1.4779,-1.4782,-1.4781,-1.4771,-1.4759,-1.4759,-1.4758,-1.4758,0,0,-1.4842,-1.4859,-1.4837,-1.4833,-1.4842,-1.4823,-1.4821,-1.4786,-1.479,-1.4782,-1.4779,-1.477,-1.4758,-1.4758,-1.4758,-1.4758,0,0,0,-1.4852,-1.4861,-1.4846,-1.4835,-1.4828,-1.4822,-1.4819,-1.4791,-1.4785,-1.4779,-1.477,-1.4758,-1.4758,-1.4758,-1.4758,-1.4787,0,0,0,-1.4853,-1.4867,-1.4847,-1.4857,-1.4829,-1.4809,-1.4825,-1.4787,-1.4783,-1.477,-1.4758,-1.4758,-1.4757,-1.4758,-1.4785,-1.4797,0,0,0,-1.4864,-1.4868,-1.4865,-1.4858,-1.4842,-1.481,-1.4801,-1.4786,-1.4777,-1.4759,-1.4757,-1.4757,-1.4758,-1.4784,-1.4795,-1.4801,0,0,0,-1.4881,-1.489,-1.4865,-1.4873,-1.4842,-1.4829,-1.4801,-1.4789,-1.4777,-1.4758,-1.4757,-1.4758,-1.4784,-1.4793,-1.48,-1.4809,-1.4815,0,0,-1.4903,-1.4894,-1.4896,-1.4873,-1.4868,-1.4833,-1.4832,-1.4803,-1.4785,-1.4767,-1.4767,-1.4786,-1.4795,-1.4801,-1.4843,-1.4848,0,0,0,-1.4909,-1.4911,-1.4906,-1.4896,-1.4876,-1.4858,-1.4828,-1.4817,-1.4802,-1.478,-1.479,-1.4794,-1.4797,-1.4801,-1.4805,-1.4805,-1.4761,-1.4761,-1.476,-1.4964,-1.4942,-1.4944,-1.4916,-1.4907,-1.4876,-1.4865,-1.4845,-1.4824,-1.4827,-1.4821,-1.485,-1.4855,-1.4857,-1.4858,-1.4825,-1.4825,-1.4825,-1.4825,-1.4993,-1.4992,-1.4965,-1.4958,-1.4933,-1.4926,-1.4896,-1.4881,-1.487,-1.4852,-1.4853,-1.4835,-1.4863,-1.4863,-1.4827,-1.4827,-1.4826,-1.4826,-1.4826,-1.5026,-1.5021,-1.5009,-1.4992,-1.4981,-1.4951,-1.4942,-1.492,-1.4898,-1.49,-1.489,-1.489,-1.4885,-1.4897,-1.4897,-1.4897,-1.4897,-1.4897,-1.4897,-1.5064,-1.505,-1.5045,-1.5025,-1.5015,-1.4999,-1.4968,-1.4957,-1.4938,-1.4922,-1.4922,-1.49,-1.4871,-1.4864,-1.4899,-1.4899,-1.4898,-1.4898,-1.4898,-1.51,-1.5089,-1.5082,-1.5072,-1.5045,-1.5035,-1.5007,-1.4986,-1.4974,-1.497,-1.4947,-1.493,-1.4919,-1.4915,-1.4909,-1.4953,-1.4953,-1.4953,-1.4953,-1.5127,-1.512,-1.5107,-1.5093,-1.5077,-1.505,-1.5042,-1.5017,-1.499,-1.498,-1.4971,-1.4961,-1.4959,-1.4948,-1.4944,-1.4938,-1.4988,-1.4988,-1.4988,-1.5147,-1.5137,-1.5135,-1.511,-1.5087,-1.5067,-1.5058,-1.5041,-1.5007,-1.4989,-1.4972,-1.4971,-1.4954,-1.495,-1.4931,-1.4925,-1.4913,0,0]},{"header":{"parameterUnit":"m.s-1","parameterCategory":1,"la1":30.2992,"la2":30.254,"lo1":-89.0895,"lo2":-89.0443,"dy":0.0025,"dx":0.0025,"nx":19,"ny":19,"refTime":"2026-03-08T21:00:00:Z","depth":0,"parameterNumber":3,"parameterNumberName":"V-component_of_WINDS"},"data":[0,0,0,2.7687,2.7689,2.7791,2.7792,2.7922,2.7923,0,0,0,0,0,0,0,0,0,0,0,2.7657,2.7658,2.7687,2.769,2.7791,2.7792,2.7922,2.7923,0,0,0,0,0,0,0,0,0,0,0,2.7656,2.7657,2.7658,2.769,2.7791,2.7792,2.7921,2.7845,0,0,0,0,0,0,0,0,0,0,2.7746,2.7717,2.7657,2.7658,2.7691,2.7791,2.7792,2.7841,2.7849,2.7875,0,2.7898,0,2.7913,2.7932,2.7932,0,0,0,2.769,2.771,2.7738,2.7659,2.7692,2.7791,2.7746,2.7846,2.7855,2.7887,2.79,2.7905,2.7915,2.7932,2.7933,2.8083,2.8084,0,0,2.7684,2.7675,2.7731,2.7744,2.7728,2.7742,2.7749,2.7851,2.7866,2.7901,2.7908,2.7917,2.7933,2.7934,2.8083,2.8084,0,0,0,2.7668,2.7671,2.7696,2.7739,2.7757,2.7745,2.7753,2.7861,2.787,2.7909,2.7919,2.7934,2.7936,2.8082,2.8083,2.8109,0,0,0,2.7665,2.7661,2.7694,2.7689,2.7755,2.781,2.776,2.7863,2.7875,2.7918,2.7934,2.7937,2.8081,2.8083,2.8107,2.8124,0,0,0,2.765,2.766,2.7674,2.7688,2.7732,2.7809,2.7824,2.7866,2.788,2.7932,2.7937,2.8081,2.8082,2.8105,2.812,2.8162,0,0,0,2.7632,2.7695,2.7674,2.7748,2.7731,2.7824,2.7823,2.7893,2.794,2.7935,2.8081,2.8083,2.8104,2.8118,2.816,2.8197,2.8211,0,0,2.7706,2.7703,2.7747,2.7732,2.7827,2.7809,2.7908,2.7959,2.7973,2.8046,2.805,2.8108,2.812,2.8162,2.829,2.8301,0,0,0,2.7768,2.78,2.7827,2.7872,2.7913,2.7951,2.7989,2.8008,2.8071,2.8008,2.8134,2.8141,2.8166,2.8184,2.8194,2.8217,2.809,2.809,2.809,2.7859,2.7874,2.7949,2.7976,2.8019,2.8058,2.8096,2.8129,2.8129,2.8159,2.8181,2.8257,2.8278,2.8286,2.8309,2.82,2.82,2.82,2.82,2.7971,2.8019,2.802,2.8093,2.8108,2.8169,2.8209,2.8208,2.8268,2.8241,2.8264,2.8235,2.8297,2.8319,2.8202,2.8202,2.8202,2.8202,2.8201,2.8034,2.806,2.8083,2.8151,2.8202,2.8226,2.8284,2.8295,2.8305,2.8328,2.8354,2.8354,2.8357,2.8339,2.8339,2.834,2.834,2.834,2.834,2.8092,2.8117,2.8165,2.8215,2.8246,2.8289,2.8329,2.8361,2.8398,2.8401,2.8402,2.8401,2.83,2.8276,2.8345,2.8344,2.8343,2.8343,2.8343,2.8204,2.818,2.8254,2.8286,2.8347,2.8397,2.841,2.8473,2.85,2.8529,2.8523,2.8446,2.8444,2.8437,2.8417,2.8518,2.8518,2.8518,2.8518,2.8259,2.8259,2.8338,2.8388,2.8438,2.8457,2.8542,2.8574,2.8604,2.8622,2.8608,2.8582,2.8574,2.8577,2.8567,2.8549,2.8681,2.8681,2.8681,2.833,2.8335,2.8405,2.8434,2.8483,2.8524,2.8605,2.8663,2.8691,2.8688,2.8637,2.863,2.8588,2.8573,2.8571,2.8554,2.8521,0,0]}]]